When you browse on this site, cookies collect data to enhance your experience and personalize the content and advertising you see.
Visit our Privacy Policy to learn more. By continuing to use the site, you agree to this use of cookies and data.
  • In Österreich
  • Länderverzeichnis
  • Für 7 Tage
  • Wassertemperatur
  • Wetterkarte
  • News
  • Widgets
  • user-avatar
    Anmelden

    Stündliche Wetter Gdansk

    Heute, 4 April, Samstag

    Zeit Temperatur Niederschläge Wind Luftdruck Luftfeuchtigkeit
    00:00 -1°C° 0 mm 6 m/S 756 mmHg 73%
    01:00 -1°C° 0 mm 6 m/S 757 mmHg 78%
    02:00 -1°C° 0 mm 5 m/S 758 mmHg 81%
    03:00 -1°C° 0 mm 5 m/S 758 mmHg 84%
    04:00 -2°C° 0 mm 4 m/S 759 mmHg 87%
    05:00 -1°C° 0 mm 5 m/S 759 mmHg 84%
    06:00 0°C° 0 mm 5 m/S 760 mmHg 82%
    07:00 +1°C° 0 mm 5 m/S 761 mmHg 80%
    08:00 +2°C° 0 mm 5 m/S 761 mmHg 74%
    09:00 +3°C° 0 mm 5 m/S 762 mmHg 67%
    10:00 +6°C° 0 mm 5 m/S 763 mmHg 61%
    11:00 +6°C° 0.1 mm 5 m/S 763 mmHg 59%
    12:00 +7°C° 0.1 mm 5 m/S 763 mmHg 57%
    13:00 +7°C° 0.1 mm 5 m/S 764 mmHg 55%
    14:00 +7°C° 0 mm 5 m/S 764 mmHg 55%
    15:00 +7°C° 0 mm 5 m/S 764 mmHg 55%
    16:00 +7°C° 0 mm 4 m/S 764 mmHg 55%
    17:00 +6°C° 0 mm 4 m/S 765 mmHg 61%
    18:00 +4°C° 0 mm 3 m/S 765 mmHg 68%
    19:00 +3°C° 0 mm 3 m/S 766 mmHg 74%
    20:00 +4°C° 0 mm 2 m/S 766 mmHg 76%
    21:00 +3°C° 0 mm 2 m/S 767 mmHg 77%
    22:00 +3°C° 0 mm 2 m/S 767 mmHg 78%
    23:00 +3°C° 0 mm 2 m/S 768 mmHg 77%

    Morgen, 5 April, Sonntag

    Zeit Temperatur Niederschläge Wind Luftdruck Luftfeuchtigkeit
    00:00 +2°C° 0 mm 3 m/S 768 mmHg 77%
    01:00 +1°C° 0 mm 3 m/S 768 mmHg 77%
    02:00 +1°C° 0 mm 3 m/S 769 mmHg 77%
    03:00 +1°C° 0 mm 3 m/S 769 mmHg 77%
    04:00 +1°C° 0 mm 3 m/S 769 mmHg 78%
    05:00 +2°C° 0 mm 3 m/S 769 mmHg 75%
    06:00 +3°C° 0 mm 3 m/S 769 mmHg 72%
    07:00 +4°C° 0 mm 4 m/S 770 mmHg 69%
    08:00 +5°C° 0 mm 3 m/S 770 mmHg 63%
    09:00 +8°C° 0 mm 3 m/S 770 mmHg 57%
    10:00 +10°C° 0 mm 3 m/S 771 mmHg 50%
    11:00 +11°C° 0 mm 3 m/S 771 mmHg 47%
    12:00 +12°C° 0 mm 3 m/S 771 mmHg 44%
    13:00 +13°C° 0 mm 3 m/S 771 mmHg 40%
    14:00 +13°C° 0 mm 3 m/S 770 mmHg 42%
    15:00 +13°C° 0 mm 4 m/S 770 mmHg 43%
    16:00 +13°C° 0 mm 4 m/S 769 mmHg 44%
    17:00 +11°C° 0 mm 4 m/S 769 mmHg 49%
    18:00 +10°C° 0 mm 3 m/S 769 mmHg 55%
    19:00 +8°C° 0 mm 3 m/S 769 mmHg 60%
    20:00 +7°C° 0 mm 3 m/S 769 mmHg 62%
    21:00 +6°C° 0 mm 4 m/S 769 mmHg 65%
    22:00 +5°C° 0 mm 4 m/S 769 mmHg 67%
    23:00 +5°C° 0 mm 4 m/S 769 mmHg 67%

    übermorgen, 6 April, Montag

    Zeit Temperatur Niederschläge Wind Luftdruck Luftfeuchtigkeit
    00:00 +4°C° 0 mm 4 m/S 769 mmHg 68%
    01:00 +4°C° 0 mm 4 m/S 769 mmHg 69%
    02:00 +4°C° 0 mm 4 m/S 769 mmHg 70%
    03:00 +3°C° 0 mm 4 m/S 769 mmHg 70%
    04:00 +3°C° 0 mm 4 m/S 769 mmHg 70%
    05:00 +3°C° 0 mm 5 m/S 769 mmHg 68%
    06:00 +5°C° 0 mm 5 m/S 768 mmHg 65%
    07:00 +5°C° 0 mm 5 m/S 768 mmHg 62%
    08:00 +7°C° 0 mm 6 m/S 768 mmHg 57%
    09:00 +9°C° 0 mm 6 m/S 768 mmHg 51%
    10:00 +11°C° 0 mm 6 m/S 768 mmHg 46%
    11:00 +13°C° 0 mm 6 m/S 768 mmHg 44%
    12:00 +14°C° 0 mm 6 m/S 768 mmHg 42%
    13:00 +15°C° 0 mm 6 m/S 768 mmHg 39%
    14:00 +15°C° 0 mm 6 m/S 767 mmHg 41%
    15:00 +15°C° 0 mm 6 m/S 767 mmHg 43%
    16:00 +15°C° 0 mm 6 m/S 766 mmHg 44%
    17:00 +14°C° 0 mm 5 m/S 766 mmHg 50%
    18:00 +12°C° 0 mm 5 m/S 766 mmHg 56%
    19:00 +10°C° 0 mm 5 m/S 766 mmHg 61%
    20:00 +9°C° 0 mm 5 m/S 766 mmHg 62%
    21:00 +9°C° 0 mm 5 m/S 766 mmHg 64%
    22:00 +8°C° 0 mm 5 m/S 767 mmHg 65%
    23:00 +8°C° 0 mm 5 m/S 767 mmHg 67%

    7 April, Dienstag

    Zeit Temperatur Niederschläge Wind Luftdruck Luftfeuchtigkeit
    00:00 +7°C° 0 mm 5 m/S 767 mmHg 70%
    01:00 +7°C° 0 mm 5 m/S 767 mmHg 72%
    02:00 +7°C° 0 mm 5 m/S 767 mmHg 74%
    03:00 +6°C° 0 mm 5 m/S 767 mmHg 76%
    04:00 +6°C° 0 mm 5 m/S 767 mmHg 78%
    05:00 +6°C° 0 mm 5 m/S 767 mmHg 75%
    06:00 +7°C° 0 mm 5 m/S 767 mmHg 72%
    07:00 +8°C° 0 mm 5 m/S 767 mmHg 69%
    08:00 +10°C° 0 mm 5 m/S 767 mmHg 64%
    09:00 +13°C° 0 mm 5 m/S 767 mmHg 60%
    10:00 +14°C° 0 mm 5 m/S 767 mmHg 55%
    11:00 +17°C° 0 mm 4 m/S 767 mmHg 52%
    12:00 +18°C° 0 mm 4 m/S 768 mmHg 49%
    13:00 +19°C° 0 mm 3 m/S 768 mmHg 46%
    14:00 +19°C° 0 mm 3 m/S 768 mmHg 50%
    15:00 +18°C° 0 mm 4 m/S 768 mmHg 53%
    16:00 +18°C° 0 mm 4 m/S 768 mmHg 56%
    17:00 +15°C° 0 mm 4 m/S 768 mmHg 64%
    18:00 +13°C° 0 mm 4 m/S 768 mmHg 73%
    19:00 +11°C° 0 mm 4 m/S 768 mmHg 81%
    20:00 +10°C° 0 mm 3 m/S 769 mmHg 81%
    21:00 +9°C° 0 mm 3 m/S 769 mmHg 81%
    22:00 +9°C° 0 mm 3 m/S 769 mmHg 82%
    23:00 +8°C° 0 mm 2 m/S 769 mmHg 81%

    8 April, Mittwoch

    Zeit Temperatur Niederschläge Wind Luftdruck Luftfeuchtigkeit
    00:00 +8°C° 0 mm 2 m/S 769 mmHg 81%
    01:00 +7°C° 0 mm 2 m/S 769 mmHg 80%
    02:00 +7°C° 0 mm 2 m/S 769 mmHg 79%
    03:00 +7°C° 0 mm 2 m/S 769 mmHg 77%
    04:00 +6°C° 0 mm 2 m/S 769 mmHg 76%
    05:00 +7°C° 0 mm 2 m/S 769 mmHg 73%
    06:00 +9°C° 0 mm 1 m/S 769 mmHg 70%
    07:00 +10°C° 0 mm 1 m/S 769 mmHg 67%
    08:00 +11°C° 0 mm 1 m/S 769 mmHg 61%
    09:00 +13°C° 0 mm 1 m/S 769 mmHg 55%
    10:00 +15°C° 0 mm 1 m/S 769 mmHg 50%
    11:00 +15°C° 0 mm 1 m/S 769 mmHg 48%
    12:00 +16°C° 0 mm 2 m/S 769 mmHg 46%
    13:00 +17°C° 0 mm 2 m/S 769 mmHg 45%
    14:00 +16°C° 0 mm 2 m/S 768 mmHg 47%
    15:00 +15°C° 0 mm 2 m/S 768 mmHg 50%
    16:00 +13°C° 0 mm 3 m/S 768 mmHg 53%
    17:00 +13°C° 0 mm 2 m/S 767 mmHg 57%
    18:00 +10°C° 0 mm 2 m/S 767 mmHg 60%
    19:00 +8°C° 0 mm 2 m/S 767 mmHg 64%
    20:00 +9°C° 0 mm 1 m/S 767 mmHg 64%
    21:00 +9°C° 0 mm 1 m/S 767 mmHg 64%
    22:00 +7°C° 0 mm 0 m/S 767 mmHg 64%
    23:00 +8°C° 0 mm 1 m/S 767 mmHg 66%

    9 April, Donnerstag

    Zeit Temperatur Niederschläge Wind Luftdruck Luftfeuchtigkeit
    00:00 +8°C° 0 mm 1 m/S 767 mmHg 67%
    01:00 +8°C° 0 mm 1 m/S 767 mmHg 68%
    02:00 +8°C° 0 mm 1 m/S 767 mmHg 68%
    03:00 +8°C° 0 mm 1 m/S 766 mmHg 68%
    04:00 +7°C° 0 mm 1 m/S 766 mmHg 68%
    05:00 +8°C° 0 mm 1 m/S 766 mmHg 64%
    06:00 +9°C° 0 mm 1 m/S 766 mmHg 61%
    07:00 +10°C° 0 mm 1 m/S 767 mmHg 57%
    08:00 +11°C° 0 mm 1 m/S 767 mmHg 52%
    09:00 +13°C° 0 mm 1 m/S 767 mmHg 47%
    10:00 +14°C° 0 mm 1 m/S 766 mmHg 42%
    11:00 +15°C° 0 mm 2 m/S 766 mmHg 41%
    12:00 +16°C° 0 mm 2 m/S 766 mmHg 39%
    13:00 +17°C° 0 mm 2 m/S 766 mmHg 38%
    14:00 +16°C° 0 mm 3 m/S 766 mmHg 42%
    15:00 +14°C° 0 mm 3 m/S 766 mmHg 45%
    16:00 +14°C° 0 mm 3 m/S 765 mmHg 49%
    17:00 +12°C° 0 mm 3 m/S 765 mmHg 56%
    18:00 +10°C° 0 mm 3 m/S 765 mmHg 62%
    19:00 +8°C° 0 mm 2 m/S 765 mmHg 69%
    20:00 +8°C° 0 mm 2 m/S 766 mmHg 72%
    21:00 +7°C° 0 mm 2 m/S 766 mmHg 75%
    22:00 +8°C° 0 mm 1 m/S 766 mmHg 78%
    23:00 +7°C° 0 mm 1 m/S 766 mmHg 81%
    Mehr zeigen